Theta_e
304 302 302 301 301 302 302 302 302 302 302 303 304 305 305 305 306 306 305 309 302 294 297 301 303 299 299 298 292 297 292 295 292 290 290 290 288 291 290 291 290 286 289 288 296 291 286 293 305 300 304 312 309 306
303 302 301 301 301 301 301 301 302 302 302 303 304 305 305 305 306 306 303 308 308 297 299 306 307 308 306 305 300 297 292 292 293 289 291 290 289 291 288 286 293 286 289 287 284 283 290 294 301 310 311 307 307 307
303 302 301 301 301 301 301 301 302 302 302 303 304 305 305 306 306 305 304 306 303 299 300 305 305 310 311 310 309 294 294 297 295 297 292 292 288 291 285 284 289 288 291 287 287 284 286 291 296 302 304 303 304 305
302 301 301 301 300 301 301 301 302 302 302 303 304 305 306 306 306 306 303 307 303 299 292 302 311 309 311 312 310 305 301 302 300 298 294 291 290 294 289 288 287 285 287 286 283 285 288 288 291 293 294 297 300 301
302 301 300 300 300 300 301 301 301 302 302 303 304 305 306 305 306 307 308 308 307 301 294 297 305 309 312 311 308 310 307 302 300 296 293 290 293 294 292 288 282 286 285 285 280 285 285 285 290 291 290 290 291 291
301 300 300 300 300 300 301 301 301 302 302 303 305 305 305 305 306 308 303 309 310 308 295 292 306 307 309 310 307 307 308 306 304 298 295 296 298 295 289 283 285 285 288 289 284 286 285 286 288 291 290 292 293 292
301 300 300 299 300 300 300 301 301 301 302 303 304 305 306 306 308 306 304 306 306 310 296 293 300 306 309 308 307 306 309 304 303 300 296 295 293 292 287 281 285 286 289 289 290 289 285 288 286 290 291 291 293 293
300 299 299 299 299 299 300 300 301 301 302 303 305 305 305 307 307 305 310 307 310 304 301 294 297 301 308 302 301 309 303 302 301 298 298 294 294 292 284 286 288 291 291 290 291 291 291 293 294 294 295 294 292 291
299 299 299 299 299 299 300 300 301 302 303 305 305 305 308 308 306 307 306 307 313 305 298 298 292 294 306 302 304 304 305 298 302 294 293 292 288 286 288 289 290 292 292 292 294 292 293 291 291 292 294 294 291 291
299 299 299 298 299 299 300 300 302 303 305 305 306 306 304 308 304 308 307 303 305 305 305 298 301 295 302 301 300 301 302 297 294 295 297 288 285 291 292 293 295 294 295 296 293 292 294 294 294 294 293 292 292 291
299 298 298 298 299 299 300 301 302 303 304 307 305 304 308 308 309 304 298 298 299 296 302 300 300 298 303 297 297 302 299 300 293 295 294 289 285 290 292 294 295 296 297 297 297 297 297 296 294 294 293 293 293 293
298 298 298 298 299 299 300 300 302 304 304 301 301 304 307 305 300 295 295 299 295 292 299 297 299 301 301 305 298 301 296 298 290 301 294 288 291 293 294 294 295 296 296 295 295 294 294 293 294 295 294 294 293 293
298 298 298 298 299 299 300 300 301 301 303 305 301 298 302 301 290 291 289 293 296 300 301 299 298 301 303 303 299 299 292 292 301 294 290 293 295 296 297 297 296 296 295 294 294 295 295 294 295 295 294 294 293 292
297 298 298 299 299 299 300 301 301 303 301 297 297 287 294 293 296 299 296 297 299 300 299 299 297 298 301 298 299 291 297 296 291 288 288 296 296 298 299 300 299 297 296 295 294 294 293 293 293 293 294 295 294 293
297 298 298 299 300 299 300 300 301 304 300 296 299 288 294 301 302 303 303 301 301 302 299 297 299 298 296 294 298 294 291 289 290 288 293 299 300 300 299 300 299 298 297 296 295 294 293 293 293 293 294 294 294 292
298 298 299 300 298 299 300 302 304 303 301 300 298 296 300 298 299 300 300 298 303 301 303 300 294 293 294 296 291 289 288 287 294 298 299 302 301 301 300 300 300 299 299 297 296 295 294 294 293 293 294 294 294 293
296 301 301 298 298 299 300 304 302 298 298 296 298 302 301 302 300 299 303 303 307 303 296 296 291 290 298 292 291 295 291 295 298 299 301 303 302 302 301 301 301 300 299 298 297 296 295 295 295 293 292 293 294 294
300 301 298 298 300 303 303 304 300 298 294 298 298 301 302 304 302 303 306 307 305 302 299 294 300 292 291 287 291 297 299 303 303 301 302 305 304 304 302 302 300 301 300 299 297 296 296 295 294 293 294 294 294 294
301 301 299 299 300 301 299 300 302 294 297 300 301 303 303 302 304 307 307 308 308 307 302 298 294 292 295 296 297 299 299 300 300 302 303 303 304 304 303 303 301 300 301 299 299 298 298 298 296 295 294 295 293 294
298 299 299 299 300 300 296 298 303 297 295 298 301 300 302 301 304 305 305 305 304 300 296 295 296 300 297 299 302 301 301 304 303 301 302 304 304 304 303 302 301 301 301 300 300 296 298 297 298 297 297 295 294 293
296 300 299 302 301 300 297 298 295 297 297 297 301 301 300 302 301 300 302 305 302 294 294 301 302 305 307 304 304 303 304 304 302 302 301 300 302 302 302 302 303 301 299 298 298 297 296 298 299 298 296 296 296 296
302 298 302 302 297 297 297 300 298 300 297 297 299 300 298 297 297 300 306 299 298 301 301 303 304 305 302 302 303 304 304 305 305 302 298 299 301 302 300 301 300 299 300 300 299 299 299 300 300 299 298 297 296 296
296 299 299 297 293 294 291 300 293 295 291 294 298 295 296 296 299 305 299 300 301 305 305 305 304 306 303 303 304 305 305 305 303 303 304 302 302 303 302 302 303 300 299 301 302 300 299 293 296 298 299 297 297 296
296 296 292 292 291 289 295 292 295 293 294 293 291 292 295 299 302 298 294 300 303 304 303 304 304 303 303 303 301 301 302 304 304 303 303 303 301 301 303 303 302 302 302 302 301 300 298 297 294 298 299 298 297 296
289 288 290 285 293 289 289 289 291 290 288 291 290 292 297 301 295 294 293 297 301 301 302 304 302 302 300 300 301 302 306 304 302 300 303 303 302 301 301 301 302 302 303 301 300 299 298 298 298 298 298 297 297 297
284 289 286 288 289 288 290 287 288 289 290 290 292 297 300 297 292 291 297 299 301 303 302 302 301 299 300 301 300 300 302 304 303 301 302 302 301 299 298 298 299 299 303 302 301 300 299 298 297 296 296 295 289 295
283 286 291 296 294 294 292 294 295 292 289 288 293 293 294 289 290 298 305 306 306 307 307 305 304 302 302 302 303 304 304 304 303 303 303 303 302 303 302 299 300 302 304 303 303 302 300 299 298 297 296 297 297 296
288 290 286 290 290 293 290 291 291 290 292 296 297 291 290 292 295 305 308 309 309 308 307 307 308 306 306 305 305 305 305 305 306 305 303 303 304 304 305 305 305 292 305 305 303 303 303 301 299 298 297 296 297 298
287 292 291 287 289 290 291 291 293 298 301 300 296 295 297 303 306 306 307 308 308 307 304 304 305 307 307 307 307 305 305 304 301 298 297 298 299 301 304 304 303 303 304 302 284 291 301 300 300 298 298 297 298 299
288 292 288 287 286 288 293 298 300 305 305 304 305 303 303 306 305 309 308 307 306 306 306 305 305 303 301 302 302 301 304 304 303 301 298 298 300 303 304 304 303 303 303 301 299 298 285 295 293 298 297 297 297 297
294 292 289 290 289 294 296 301 304 303 304 304 303 301 300 303 305 309 307 305 305 305 304 303 304 305 303 301 302 301 300 303 304 304 304 304 305 305 305 305 305 304 303 301 299 297 296 296 296 296 295 295 295 293
290 289 289 288 291 297 299 299 298 299 302 300 299 302 299 298 297 303 306 307 305 302 296 301 303 303 306 307 307 306 295 305 304 305 305 305 306 306 306 305 305 304 302 301 300 298 297 296 296 296 296 295 295 295
291 291 292 291 293 293 298 297 296 295 298 297 299 301 299 298 295 304 309 310 305 304 304 305 306 309 308 309 308 307 298 306 301 291 290 291 293 298 304 305 304 303 302 301 300 299 298 297 299 298 300 291 292 291
Wind_Speed
11 10 9 8 10 10 11 13 14 14 15 16 17 17 16 16 16 9 9 5 2 4 15 9 11 17 16 12 8 18 8 4 5 10 7 6 4 6 5 4 7 7 8 7 5 6 7 20 6 5 3 20 20 19
12 11 9 9 9 9 11 12 14 14 15 16 16 16 16 15 15 12 6 2 3 4 13 24 23 20 15 13 10 4 4 7 3 4 3 4 3 4 7 5 11 7 8 5 8 5 8 13 8 9 12 18 19 19
14 12 11 10 9 10 11 12 14 13 14 16 16 17 17 16 14 9 7 7 4 4 10 11 3 11 4 5 4 2 2 4 2 2 2 3 3 5 5 6 5 11 16 5 2 8 12 16 18 19 19 16 17 17
15 12 12 10 9 10 11 12 14 15 16 16 17 17 17 15 14 10 6 4 2 4 4 6 10 10 8 8 4 10 7 4 4 2 2 2 3 6 5 7 8 6 10 7 5 4 8 16 16 17 20 20 21 20
16 13 11 10 9 10 12 13 14 16 18 19 18 18 18 17 13 10 7 6 6 4 5 9 21 7 9 7 5 5 6 4 1 2 3 3 3 2 3 5 7 9 6 4 4 7 10 5 10 15 18 17 16 19
14 12 9 8 9 11 13 13 14 17 18 20 20 20 20 18 12 7 3 2 7 3 3 6 9 10 12 6 2 6 8 3 6 3 4 4 6 1 5 5 10 10 10 7 5 11 14 10 13 14 17 16 15 17
14 12 10 9 10 11 12 13 15 17 18 20 21 21 20 14 8 5 6 4 2 5 3 5 6 5 13 6 2 3 9 9 7 3 4 4 9 6 6 5 9 5 7 8 9 8 12 9 9 14 16 15 16 15
13 11 9 9 10 11 12 15 17 18 20 20 20 20 15 10 9 4 4 5 5 4 4 4 7 6 10 7 3 2 3 7 10 4 6 9 4 6 7 3 4 11 14 17 17 15 15 15 16 18 17 15 16 15
13 10 8 9 9 12 13 14 16 18 20 20 20 13 6 6 3 4 1 4 4 4 4 3 4 6 8 7 5 3 4 3 5 9 7 6 8 8 4 10 10 10 12 13 14 15 15 14 13 13 15 16 16 14
11 9 8 8 9 11 12 15 16 19 22 21 8 7 5 6 1 5 5 4 6 5 5 3 8 8 9 9 5 4 5 3 3 5 6 5 7 7 7 6 8 8 11 13 13 13 14 15 14 14 14 12 12 12
11 8 8 7 9 10 11 13 16 19 17 3 3 3 6 5 4 4 4 4 3 3 1 4 7 9 4 7 7 5 3 2 3 5 4 4 3 1 3 5 6 8 11 13 13 13 13 13 12 13 13 13 12 13
11 8 6 8 9 9 10 11 13 9 7 8 7 5 4 5 5 4 4 2 4 3 2 6 8 7 4 3 3 5 2 4 4 4 4 4 7 10 8 7 7 7 10 12 13 13 12 11 11 12 12 12 12 12
8 7 6 8 8 9 10 10 8 10 13 3 4 4 3 2 1 6 6 3 1 2 2 5 6 4 3 4 4 2 4 3 3 3 4 5 12 12 12 10 10 10 11 12 12 12 13 12 12 11 11 12 13 12
8 7 7 9 9 10 10 7 7 7 3 4 5 2 6 6 6 2 4 5 5 5 6 5 5 3 4 3 3 3 3 3 2 2 3 10 14 14 13 11 11 11 11 12 12 12 13 12 11 11 10 11 11 11
7 7 8 11 8 4 5 8 7 5 3 5 4 5 7 2 2 2 3 3 3 5 5 5 4 3 3 4 2 4 3 2 3 3 5 9 12 12 12 11 12 11 11 10 10 10 11 11 10 10 10 10 11 12
6 10 6 9 1 6 8 10 4 3 4 5 5 7 4 5 6 3 2 1 1 1 3 2 4 3 3 2 3 1 1 2 1 4 8 10 12 11 12 11 9 9 10 10 10 10 9 9 10 10 10 10 10 11
4 3 12 4 5 12 11 5 4 5 5 4 6 6 7 3 4 4 5 2 2 3 3 3 5 2 1 3 1 3 2 1 8 9 6 12 12 11 11 11 9 10 10 10 10 10 10 10 10 9 10 9 10 9
5 9 7 1 6 3 4 5 4 5 7 7 5 7 6 2 3 2 2 2 3 1 4 2 4 4 2 1 1 2 3 2 7 6 6 10 9 13 12 13 11 11 10 10 10 10 10 9 9 8 9 9 9 9
9 6 7 6 7 4 4 5 4 5 6 5 5 5 4 3 5 3 3 2 2 2 4 3 4 2 2 1 2 3 5 6 8 9 8 12 13 14 13 11 12 12 11 10 10 7 7 6 7 7 7 8 7 7
9 11 9 7 5 4 5 4 3 5 5 1 4 7 6 5 1 4 3 4 2 2 4 4 2 2 2 2 2 3 5 5 8 9 10 11 11 16 14 10 9 11 9 9 7 5 7 7 6 6 4 6 6 7
7 3 4 5 5 4 4 3 4 3 6 5 4 4 5 6 6 5 4 3 3 2 3 5 4 2 2 4 2 3 5 9 7 9 10 10 9 9 7 8 8 7 6 7 7 6 4 6 6 7 6 6 6 6
4 2 4 4 4 5 4 5 4 3 4 5 4 6 6 7 7 6 6 5 4 4 5 4 4 3 7 4 4 4 6 9 8 8 6 9 10 11 7 6 8 8 8 7 7 8 5 6 6 7 6 7 5 7
2 4 3 4 4 4 5 5 5 5 4 3 4 4 5 5 5 8 5 5 3 5 4 4 5 3 10 7 10 9 8 12 7 5 10 8 8 8 10 10 10 9 8 6 6 5 6 7 3 6 7 7 6 9
1 4 5 5 6 4 3 4 3 4 4 6 4 9 5 2 5 4 4 3 6 6 6 8 7 7 7 8 8 10 7 7 8 7 6 8 7 7 8 9 6 5 5 7 5 6 5 5 7 7 8 8 7 7
3 4 4 3 5 4 6 7 8 5 7 8 7 7 3 5 5 5 4 4 7 6 7 8 7 8 7 5 6 6 11 10 9 7 7 8 8 7 6 5 5 6 7 6 6 7 6 7 7 7 7 7 8 8
3 6 5 7 5 6 6 5 8 8 4 5 7 4 3 4 6 5 3 4 7 8 6 7 7 6 7 6 6 7 4 3 7 9 8 7 6 6 7 8 8 6 6 7 9 9 9 8 7 8 7 7 3 6
4 6 5 5 4 3 6 5 3 4 7 6 4 5 5 5 4 4 2 5 5 7 6 6 5 8 8 6 7 8 5 4 4 2 6 5 6 7 7 8 9 8 11 8 6 8 9 10 8 9 8 8 8 9
4 4 5 6 6 5 4 4 5 6 7 4 3 5 3 2 3 3 3 4 7 7 7 6 5 4 4 7 8 8 10 7 8 8 7 6 6 5 3 3 5 9 1 2 6 7 8 8 8 8 8 7 7 7
4 3 4 6 5 5 5 5 4 2 1 2 2 1 2 3 4 5 6 5 5 5 6 6 5 7 8 7 6 6 7 7 10 12 12 8 6 6 6 6 6 6 5 6 6 5 6 7 9 9 8 6 4 4
5 7 4 4 6 7 7 3 2 2 2 3 2 1 6 3 3 4 4 5 7 4 3 4 6 6 6 7 8 8 8 9 9 9 10 9 8 8 9 8 8 7 6 7 7 8 6 6 5 5 4 4 4 3
2 4 4 5 5 8 7 4 3 4 3 2 4 2 4 4 3 0 3 2 0 5 5 6 7 5 5 7 7 9 8 8 11 12 10 6 5 8 7 8 8 7 8 8 8 8 10 8 8 8 8 7 6 5
5 6 6 5 6 6 5 3 3 4 1 1 1 2 3 3 4 3 2 3 4 3 1 2 3 2 5 8 7 9 9 9 9 9 10 6 3 6 7 7 7 7 8 9 9 9 11 11 8 8 8 9 8 7
6 5 6 5 4 4 3 3 4 2 2 2 2 2 1 1 2 3 2 1 2 1 3 4 5 4 6 3 4 6 7 6 5 6 8 3 8 7 7 7 7 8 10 9 9 9 11 12 7 4 3 3 6 7
Wind_Direction
232 244 257 275 289 304 311 312 313 319 320 320 323 326 325 323 325 327 291 294 244 265 291 267 291 295 307 308 315 310 322 37 325 0 358 352 338 359 342 30 359 4 319 28 9 101 76 345 347 21 264 126 123 128
222 236 253 266 283 295 300 304 308 315 318 317 318 319 317 317 318 324 287 34 280 244 278 299 281 270 268 305 312 324 281 297 323 323 359 309 334 336 337 19 9 38 1 29 29 61 344 333 344 86 103 114 131 119
218 225 238 250 268 284 294 302 304 309 312 311 314 316 314 311 310 309 294 322 284 268 292 269 163 358 280 316 92 224 258 273 253 215 299 303 322 339 359 29 355 1 13 76 188 18 17 20 31 62 76 85 103 108
218 224 239 256 271 284 293 301 306 309 309 309 311 311 306 309 309 299 275 300 291 273 284 300 355 337 321 1 199 190 247 276 266 224 245 304 346 7 38 47 40 360 308 45 76 102 65 27 42 62 66 63 82 87
213 218 232 254 273 288 299 303 305 307 311 311 311 310 310 312 306 281 247 234 225 299 309 306 298 304 331 15 12 334 222 267 3 2 29 23 2 353 97 58 29 346 331 332 68 40 86 39 55 81 85 84 86 94
210 222 229 254 275 285 295 305 312 310 313 310 310 311 311 310 303 271 206 191 165 151 286 306 345 274 4 325 62 18 45 88 33 51 39 32 355 322 57 61 3 6 46 42 86 75 79 74 64 75 85 89 103 104
202 215 227 246 267 286 299 307 311 312 312 309 308 308 305 294 254 276 4 58 344 132 244 282 264 46 355 310 34 98 30 50 35 44 49 50 43 65 50 53 346 6 63 82 86 88 72 56 99 99 97 100 93 94
200 213 235 262 283 293 301 309 311 314 308 306 304 309 297 287 248 241 160 235 271 247 242 269 304 319 22 331 343 61 107 63 20 31 51 33 38 74 66 42 51 71 79 79 81 84 94 107 110 108 103 98 97 96
202 217 237 261 279 295 304 307 312 312 304 300 303 302 243 234 205 81 90 199 198 282 289 300 314 340 300 336 304 299 128 88 120 51 41 36 24 47 84 66 73 100 102 119 121 125 113 104 101 96 98 99 102 101
201 222 246 266 289 298 306 312 313 311 305 303 275 212 208 48 5 170 184 199 210 195 236 274 285 315 348 333 315 352 324 127 126 93 118 68 43 40 38 50 66 90 108 113 115 112 114 117 114 109 105 106 102 98
204 222 249 274 289 296 309 315 316 319 283 228 293 317 9 124 237 224 221 205 240 248 238 281 338 304 321 333 331 337 302 332 109 151 117 106 112 92 332 11 52 51 53 56 69 84 92 99 102 102 102 105 109 110
204 218 246 270 282 296 307 313 317 306 11 335 305 286 279 232 221 215 234 209 203 231 25 322 313 353 319 318 275 296 299 3 69 111 111 90 141 170 185 150 119 103 98 104 108 110 108 107 109 107 103 99 99 104
215 230 249 267 280 289 298 302 307 307 287 209 232 240 225 225 308 222 194 212 228 207 351 330 317 305 270 237 292 291 4 11 67 43 75 118 146 158 147 146 126 116 110 103 98 94 95 97 98 104 108 106 106 107
220 241 260 271 277 282 283 280 309 315 269 248 227 277 235 194 235 242 1 14 33 345 314 308 308 289 305 280 295 305 354 67 94 122 93 147 154 153 154 139 135 115 110 108 108 110 106 108 107 103 106 111 116 109
214 251 264 270 267 243 276 290 292 250 257 253 224 244 217 307 348 355 351 29 9 298 304 299 273 260 276 298 274 3 299 160 28 100 134 157 144 149 147 147 128 128 121 111 109 109 110 108 110 109 109 110 112 119
241 261 211 144 214 298 291 269 214 232 251 256 246 247 213 246 194 92 295 269 286 303 277 252 269 261 239 268 257 201 28 4 125 108 147 156 143 147 149 140 137 125 117 114 110 111 117 113 110 111 117 121 125 127
216 246 135 156 287 278 266 239 187 224 250 236 242 238 288 302 151 178 261 151 268 285 249 233 250 227 333 271 221 48 113 93 113 131 154 149 143 139 141 133 149 126 117 119 117 107 106 114 122 124 123 128 127 127
254 131 139 176 297 224 180 219 231 235 238 238 244 247 230 226 217 217 314 321 295 289 267 267 282 240 211 180 274 134 100 108 120 148 153 138 143 151 154 153 156 133 130 126 125 129 136 133 130 120 128 133 132 135
20 1 5 318 301 281 217 205 237 255 242 269 250 242 243 215 259 247 152 166 184 227 287 266 255 247 219 199 150 133 130 140 151 149 150 159 160 159 152 163 145 137 137 136 147 148 144 127 118 134 138 168 143 159
272 273 270 256 247 245 222 210 221 259 272 263 244 259 214 226 218 235 160 162 175 140 245 240 237 55 326 312 143 186 125 163 158 152 151 149 156 152 159 156 152 144 150 151 147 161 140 148 148 165 137 126 148 139
184 132 217 208 201 238 285 270 230 243 291 269 248 244 258 215 218 227 169 140 164 191 249 251 307 281 298 104 150 202 205 151 191 153 158 155 147 136 165 138 145 152 165 166 180 135 240 159 147 125 170 159 135 146
95 188 217 162 241 197 257 252 264 3 264 258 272 232 247 215 220 191 158 198 240 190 220 218 225 131 99 100 95 151 172 126 139 121 153 152 148 163 148 153 171 181 189 175 203 161 200 143 152 150 175 121 164 134
178 213 205 200 238 199 253 224 229 227 235 297 261 257 233 209 179 174 205 210 182 208 192 151 127 112 116 130 129 139 147 156 162 156 155 152 153 173 170 178 180 193 188 172 216 139 105 80 143 196 150 161 157 134
144 224 215 196 207 243 239 215 235 242 259 217 240 237 233 197 199 226 234 172 141 180 157 136 167 138 146 165 152 139 136 139 149 149 181 187 160 173 191 189 175 176 153 200 148 122 144 175 139 201 167 177 179 172
187 233 160 235 225 245 227 210 197 217 225 205 223 243 206 183 200 237 206 152 154 159 151 174 169 164 164 163 138 132 155 163 158 168 177 171 169 164 168 181 155 173 184 152 151 160 176 148 200 181 172 188 189 198
217 206 192 200 181 212 230 216 200 207 221 205 232 236 192 219 219 221 162 124 136 143 175 178 164 172 178 171 152 141 185 181 158 166 183 181 162 167 171 176 171 163 176 183 180 184 176 184 189 177 185 167 78 234
238 215 215 214 235 250 261 245 238 194 200 223 240 214 208 222 213 93 112 103 123 164 174 175 188 174 183 178 163 151 176 151 206 136 166 172 169 181 181 186 191 195 182 209 216 182 190 190 194 189 196 183 181 212
255 309 219 219 213 269 252 275 252 216 204 209 208 225 211 266 90 89 127 147 147 160 161 164 165 141 167 159 163 157 176 174 146 210 170 179 180 175 156 131 68 32 54 174 225 205 201 195 198 195 203 209 201 201
226 245 271 230 217 247 236 241 250 232 273 289 259 218 113 76 127 143 135 139 131 134 149 157 153 150 154 174 156 170 171 168 181 178 178 176 175 191 189 172 159 180 169 158 68 359 187 194 193 191 197 207 220 238
222 168 183 241 225 236 237 226 302 338 292 238 232 232 89 92 93 117 133 129 126 151 195 158 169 184 180 175 170 175 177 192 186 185 200 203 204 200 174 174 178 179 164 160 170 136 100 154 143 156 181 196 195 210
314 191 215 219 232 245 260 251 276 276 262 251 260 217 138 162 150 102 95 53 163 160 180 180 183 187 185 202 196 183 193 200 211 206 208 215 205 165 171 176 180 182 170 179 164 173 177 186 190 193 200 207 204 204
195 204 232 249 238 222 224 233 236 240 251 178 156 163 206 167 149 142 51 296 241 230 66 276 241 223 225 172 208 226 209 199 200 215 205 217 144 137 169 178 180 175 180 182 176 184 186 195 198 199 214 222 223 203
205 225 236 271 252 214 199 229 216 199 132 147 129 167 253 22 95 92 137 231 77 5 347 5 30 46 350 302 182 223 206 214 181 150 120 105 128 154 169 161 165 178 189 190 188 196 198 197 192 210 117 129 96 97